Weather History for KGLR - February, 2012

Change the Weather History Date:

Saturday, February 11, 2012

  Actual Average Record
Temperature  
Mean Temperature 9 °F -  
Max Temperature 17 °F 27 °F 50 °F (1999)
Min Temperature 1 °F 8 °F -25 °F (1958)
Degree Days  
Heating Degree Days 56    
Moisture  
Dew Point 5 °F    
Average Humidity 79    
Maximum Humidity 92    
Minimum Humidity 72    
Precipitation  
Precipitation 0.00 in - - ()
Sea Level Pressure  
Sea Level Pressure 30.11 in    
Wind  
Wind Speed 7 mph (WNW)    
Max Wind Speed 14 mph    
Max Gust Speed 23 mph    
Visibility 7 miles    
Events Snow    
Averages and records for this station are not official NWS values.
T = Trace of Precipitation, MM = Missing Value Source: NWS Daily Summary

Daily Weather History Graph

Daily Weather History Graph

Search for Another Location

Airport or City:

Trip Planner

Search our weather history database for the weather conditions in past years. The results will help you decide how hot, cold, wet, or windy it might be!

Date:

Astronomy

Feb. 11, 2012 Rise Set
Actual Time 7:46 AM EST 6:00 PM EST
Civil Twilight 7:15 AM EST 6:30 PM EST
Nautical Twilight 6:41 AM EST 7:05 PM EST
Astronomical Twilight 6:07 AM EST 7:39 PM EST
Moon 11:04 PM EST (2/11) 9:13 AM EST (2/11)
Length of Visible Light 11h 15m
Length of Day
10h 14m
Waning Gibbous, 82% of the Moon is Illuminated
Feb 11
Waning Gibbous
Feb 14
Last Quarter
Feb 21
New
Feb 29
First Quarter
Mar 8
Full

Hourly Weather History & Observations

Time (EST) Temp. Windchill Dew Point Humidity Pressure Visibility Wind Dir Wind Speed Gust Speed Precip Events Conditions
12:53 AM 8.1 °F -3.2 °F 1.9 °F 76% 30.14 in 10.0 mi Variable 6.9 mph - N/A   Overcast
1:51 AM 5.0 °F -5.6 °F -2.2 °F 72% 30.05 in 10.0 mi NNE 5.8 mph - 0.00 in   Scattered Clouds
1:53 AM 5.0 °F -4.1 °F -2.0 °F 73% 30.15 in 10.0 mi NNE 4.6 mph - 0.00 in   Scattered Clouds
2:12 AM 3.2 °F -7.8 °F -2.2 °F 78% 30.06 in 10.0 mi Variable 5.8 mph - N/A   Mostly Cloudy
2:28 AM 3.2 °F -7.8 °F -2.2 °F 78% 30.06 in 10.0 mi North 5.8 mph - N/A   Scattered Clouds
2:53 AM 3.0 °F -8.0 °F -4.0 °F 73% 30.16 in 10.0 mi Variable 5.8 mph - N/A   Clear
3:50 AM 1.4 °F -8.3 °F -2.2 °F 85% 30.06 in 10.0 mi Variable 4.6 mph - N/A   Mostly Cloudy
3:53 AM 1.0 °F -11.7 °F -2.9 °F 83% 30.17 in 10.0 mi North 6.9 mph - N/A   Mostly Cloudy
4:06 AM 1.4 °F -9.9 °F -2.2 °F 85% 30.07 in 10.0 mi North 5.8 mph - N/A   Overcast
4:53 AM 1.0 °F -10.3 °F -2.9 °F 83% 30.18 in 10.0 mi Variable 5.8 mph - N/A   Overcast
5:53 AM 1.0 °F -8.7 °F -2.9 °F 83% 30.19 in 10.0 mi NNE 4.6 mph - N/A   Overcast
6:53 AM 1.0 °F -8.7 °F -2.9 °F 83% 30.20 in 10.0 mi Variable 4.6 mph - N/A   Overcast
7:53 AM 1.9 °F -7.6 °F -0.9 °F 88% 30.21 in 10.0 mi North 4.6 mph - N/A   Overcast
8:24 AM 1.4 °F -6.2 °F -0.4 °F 92% 30.11 in 10.0 mi NNE 3.5 mph - N/A   Overcast
8:53 AM 3.0 °F - -0.9 °F 84% 30.22 in 10.0 mi Calm Calm - N/A   Overcast
9:53 AM 5.0 °F - 1.0 °F 84% 30.22 in 10.0 mi Calm Calm - N/A   Overcast
10:25 AM 6.8 °F - 1.4 °F 79% 30.12 in 10.0 mi Calm Calm - N/A   Overcast
10:36 AM 6.8 °F - 1.4 °F 79% 30.12 in 10.0 mi Calm Calm - N/A   Overcast
10:53 AM 7.0 °F -1.7 °F 1.9 °F 80% 30.22 in 10.0 mi Variable 4.6 mph - N/A   Overcast
11:53 AM 12.0 °F 4.1 °F 6.1 °F 77% 30.21 in 10.0 mi WNW 4.6 mph - N/A   Overcast
12:53 PM 15.1 °F 5.2 °F 8.1 °F 74% 30.18 in 10.0 mi West 6.9 mph - N/A   Overcast
2:53 PM 17.1 °F 6.6 °F 10.0 °F 74% 30.15 in 4.0 mi WNW 8.1 mph 17.3 mph 0.00 in Snow Light Snow
3:09 PM 17.6 °F 6.4 °F 12.2 °F 79% 30.06 in 1.8 mi WNW 9.2 mph 16.1 mph 0.00 in Snow Light Snow
3:18 PM 17.6 °F 5.0 °F 10.4 °F 73% 30.06 in 3.0 mi WNW 11.5 mph 18.4 mph 0.00 in Snow Light Snow
3:32 PM 17.6 °F 5.7 °F 10.4 °F 73% 30.06 in 1.8 mi WNW 10.4 mph - 0.00 in Snow Light Snow
3:45 PM 17.6 °F 8.2 °F 10.4 °F 73% 30.06 in 2.0 mi Variable 6.9 mph 21.9 mph 0.00 in Snow Light Snow
3:53 PM 16.0 °F 2.9 °F 10.9 °F 81% 30.15 in 1.5 mi WNW 11.5 mph 23.0 mph 0.00 in Snow Light Snow
3:59 PM 15.8 °F 4.2 °F 10.4 °F 79% 30.06 in 3.0 mi WNW 9.2 mph 23.0 mph 0.00 in Snow Light Snow
4:16 PM 15.8 °F 3.4 °F 10.4 °F 79% 30.06 in 1.8 mi WNW 10.4 mph 16.1 mph 0.00 in Snow Light Snow
4:53 PM 16.0 °F 3.6 °F 10.0 °F 77% 30.16 in 1.0 mi WNW 10.4 mph 23.0 mph 0.00 in Snow Light Snow
5:31 PM 15.8 °F 3.4 °F 10.4 °F 79% 30.07 in 2.0 mi West 10.4 mph - 0.00 in Snow Light Snow
5:50 PM 15.8 °F 6.1 °F 10.4 °F 79% 30.07 in 1.2 mi West 6.9 mph - 0.00 in Snow Light Snow
5:53 PM 15.1 °F 4.2 °F 10.9 °F 84% 30.16 in 1.2 mi West 8.1 mph - 0.00 in Snow Light Snow
6:10 PM 15.8 °F 3.4 °F 10.4 °F 79% 30.07 in 2.5 mi West 10.4 mph 16.1 mph 0.00 in Snow Light Snow
6:35 PM 15.8 °F 4.2 °F 10.4 °F 79% 30.06 in 6.0 mi West 9.2 mph - 0.00 in Snow Light Snow
6:53 PM 15.1 °F 3.3 °F 10.9 °F 84% 30.15 in 8.0 mi West 9.2 mph 17.3 mph 0.00 in Snow Light Snow
7:53 PM 16.0 °F 4.4 °F 10.0 °F 77% 30.14 in 9.0 mi West 9.2 mph - 0.00 in Snow Light Snow
8:05 PM 15.8 °F 4.2 °F 8.6 °F 73% 30.04 in 10.0 mi West 9.2 mph - N/A   Overcast
8:31 PM 15.8 °F 1.4 °F 8.6 °F 73% 30.03 in 10.0 mi West 13.8 mph 19.6 mph N/A   Overcast
8:53 PM 16.0 °F 4.4 °F 9.0 °F 74% 30.12 in 10.0 mi West 9.2 mph 18.4 mph N/A   Overcast
9:53 PM 17.1 °F 5.0 °F 10.0 °F 74% 30.11 in 10.0 mi West 10.4 mph 17.3 mph 0.00 in Snow Light Snow
10:49 PM 17.6 °F 5.7 °F 12.2 °F 79% 30.02 in 2.0 mi WNW 10.4 mph 18.4 mph 0.00 in Snow Light Snow
10:53 PM 17.1 °F 5.8 °F 12.9 °F 84% 30.10 in 2.0 mi West 9.2 mph 18.4 mph 0.00 in Snow Light Snow
11:33 PM 17.6 °F 7.3 °F 12.2 °F 79% 30.00 in 4.0 mi WNW 8.1 mph - 0.00 in Snow Light Snow
11:53 PM 17.1 °F 3.6 °F 12.0 °F 81% 30.08 in 9.0 mi WNW 12.7 mph 18.4 mph 0.00 in   Overcast